Printer-friendly version
Follow the MPC on Twitter Follow the MPC on Facebook The MPC blog
Minor Planet Center

MPEC 2010-H49 : COMET C/2010 E1 (GARRADD)

The following Minor Planet Electronic Circular may be linked-to from your own Web pages, but must not otherwise be redistributed electronically.

A form allowing access to any MPEC is at the bottom of this page.


Read MPEC 2010-H48 Read MPEC 2010-H50


M.P.E.C. 2010-H49                                Issued 2010 Apr. 24, 16:27 UT

     The Minor Planet Electronic Circulars contain information on unusual
         minor planets and routine data on comets.  They are published
   on behalf of Commission 20 of the International Astronomical Union by the
          Minor Planet Center, Smithsonian Astrophysical Observatory,
                          Cambridge, MA 02138, U.S.A.

             Prepared using the Tamkin Foundation Computer Network

                              MPC@CFA.HARVARD.EDU
       URL http://www.minorplanetcenter.org/iau/mpc.html  ISSN 1523-6714

                           COMET C/2010 E1 (GARRADD)

Observations:
    CK10E010  C2010 04 03.85347 09 26 24.50 -12 12 41.7          18.1 T EH049473
    CK10E010  C2010 04 03.85576 09 26 24.51 -12 12 37.9          18.1 T EH049473
    CK10E010  C2010 04 18.91432 09 29 20.61 -06 02 09.8          18.7 N EH049204

Observer details:
204 Schiaparelli Observatory.  Observer L. Buzzi.  0.38-m f/6.8 reflector
    + CCD.
473 Remanzacco.  Observers L. Donato, V. Gonano, E. Guido, G. Sostero.  0.45-m
    f/4.4 Newtonian reflector + CCD.

Orbital elements:
    C/2010 E1 (Garradd)
T 2009 Nov. 8.0182 TT                                   MPC
q   2.662641             (2000.0)            P               Q
z  +0.008957       Peri.  297.0068      -0.3942035      -0.9019284
                   Node   169.2905      +0.6660795      -0.1481198
e   0.976150       Incl.   71.7014      -0.6331996      +0.4056916
From 111 observations 2010 Mar. 11-Apr. 18.

Brian G. Marsden             (C) Copyright 2010 MPC           M.P.E.C. 2010-H49

Read MPEC 2010-H48 Read MPEC 2010-H50


MPEC number:

Enter an MPEC number in one of the following forms:

  • 1997-B01 (the full form)
  • J97B01 (the packed version of the full form)
  • B01 (the abbreviated form)

Valid HTML 4.01!